EDT,Max TemperatureF,Mean TemperatureF,Min TemperatureF,Max Dew PointF,MeanDew PointF,Min DewpointF,Max Humidity, Mean Humidity, Min Humidity, Max Sea Level PressureIn, Mean Sea Level PressureIn, Min Sea Level PressureIn, Max VisibilityMiles, Mean VisibilityMiles, Min VisibilityMiles, Max Wind SpeedMPH, Mean Wind SpeedMPH, Max Gust SpeedMPH,PrecipitationIn, CloudCover, Events, WindDirDegrees
2013-6-1,89,82,75,76,74,72,94,85,63,30.04,29.99,29.94,10,8,1,17,11,23,1.02,7,Rain-Thunderstorm,132
2013-6-2,87,80,75,76,74,72,96,85,63,30.00,29.96,29.89,10,10,10,15,8,,0.00,4,,176
2013-6-3,84,80,77,76,74,71,94,82,67,29.99,29.93,29.90,10,10,10,15,8,22,0.00,5,Rain,210
2013-6-4,84,80,77,74,73,72,90,80,67,30.01,29.98,29.94,10,10,10,20,10,,0.00,6,Rain,189
2013-6-5,84,81,78,75,73,71,90,78,67,30.00,29.94,29.89,10,10,9,21,13,,0.07,5,Rain,143
2013-6-6,81,79,77,77,74,71,96,88,74,29.86,29.72,29.65,10,6,0,33,23,48,2.40,7,Fog-Rain-Thunderstorm,193
2013-6-7,84,78,75,75,73,72,94,79,69,29.96,29.89,29.78,10,10,10,15,9,22,0.00,2,,243
2013-6-8,86,78,73,76,74,72,100,84,69,30.10,30.03,29.96,10,8,0,26,10,36,1.70,5,Fog-Rain-Thunderstorm,179
2013-6-9,89,82,75,77,74,71,100,86,65,30.09,30.07,30.01,10,9,2,21,9,,0.04,4,Rain,121
2013-6-10,90,83,77,77,75,71,96,80,59,30.08,30.05,30.01,10,10,10,13,9,16,0.00,1,,140
2013-6-11,91,84,79,79,75,72,90,78,61,30.08,30.05,30.02,10,10,10,10,7,,0.01,1,Rain-Thunderstorm,95
2013-6-12,91,85,79,74,73,71,82,69,55,30.09,30.05,30.01,10,10,10,10,6,,0.00,1,,65
2013-6-13,91,85,81,77,74,70,85,72,55,30.04,29.99,29.91,10,10,10,13,5,16,0.00,2,,305
2013-6-14,87,84,81,75,73,71,79,72,61,29.95,29.92,29.89,10,10,10,15,8,22,0.00,2,,272
2013-6-15,88,84,81,76,75,73,82,75,67,30.05,29.99,29.92,10,10,10,17,7,,0.00,4,,283
2013-6-16,91,86,80,78,77,73,90,80,62,30.08,30.05,30.01,10,10,10,18,10,,0.00,4,Thunderstorm,123
2013-6-17,91,86,82,77,74,71,82,69,52,30.06,30.03,29.99,10,10,10,12,7,,0.00,1,,214
2013-6-18,90,86,82,77,75,71,84,71,55,30.05,30.02,29.97,10,10,10,12,4,,0.00,2,,238
2013-6-19,90,85,81,79,76,74,91,75,61,30.04,30.00,29.97,10,10,9,16,6,,0.00,3,Rain-Thunderstorm,175
2013-6-20,91,86,80,77,74,71,85,71,55,30.10,30.05,30.01,10,10,10,15,7,,0.00,3,Rain-Thunderstorm,121
2013-6-21,91,84,78,76,73,70,93,74,53,30.10,30.08,30.04,10,8,0,29,10,38,0.65,3,Fog-Rain-Thunderstorm,111
2013-6-22,90,82,75,76,73,70,88,75,52,30.12,30.08,30.04,10,8,0,29,9,37,1.11,3,Fog-Rain-Thunderstorm,119
2013-6-23,93,84,78,76,75,71,89,76,50,30.13,30.09,30.05,10,10,9,31,12,43,0.00,3,Rain-Thunderstorm,122
2013-6-24,93,86,80,76,74,71,87,72,49,30.18,30.11,30.05,10,10,10,17,11,,0.00,3,Thunderstorm,96
2013-6-25,93,86,79,77,75,70,94,75,47,30.14,30.08,30.01,10,8,2,18,8,23,0.73,3,Rain-Thunderstorm,176
2013-6-26,90,84,79,76,75,72,90,78,57,30.07,30.04,30.01,10,10,4,25,8,,0.16,2,Rain,158
2013-6-27,91,84,78,76,75,71,88,75,55,30.05,30.00,29.94,10,10,10,15,8,18,0.00,2,,204
2013-6-28,88,84,79,78,76,74,91,75,63,29.97,29.92,29.85,10,9,2,18,8,23,0.26,3,Rain-Thunderstorm,246
2013-6-29,84,80,75,77,75,71,93,82,74,29.89,29.85,29.80,10,7,1,18,8,31,0.81,4,Rain-Thunderstorm,255
2013-6-30,88,82,77,79,76,74,94,82,69,29.89,29.84,29.80,10,8,2,20,10,31,0.51,4,Rain-Thunderstorm,217